Weather observations for the past three days for
Fort Bragg / Simmons Army Airfield
Imperial (Metric)
Date Time (edt) Wind (mph) Vis. (mi.) Weather Sky Cond. Temperature (ºF) Relative Humidity Wind Chill (°F) Heat Index (°F) Pressure Precipitation (in)
Air Dwpt 6 hour altimeter (in) sea level (mb) 1 hr 3 hr 6 hr
Max. Min.
25 11:55 S 7 10.00 Mostly Cloudy BKN014 80.2 73.8 81% 85 30.15 1021.0
25 10:55 SW 6 10.00 A Few Clouds FEW009 FEW012 79.2 74.8 87% 83 30.17 1021.7 0.03
25 09:55 SW 6 10.00 Overcast FEW006 FEW015 OVC022 77.5 75 92% 79 30.17 1021.7 0.01
25 08:55 S 6 7.00 Light Rain OVC008 76.8 74.8 94% 78 30.17 1021.7 0.02
25 07:55 S 3 9.00 A Few Clouds FEW050 77.2 75 79.2 76.5 93% 78 30.16 1021.4 0.05
25 06:55 Calm 10.00 A Few Clouds FEW037 76.8 74.8 94% 78 30.16 1021.4
25 05:55 Calm 10.00 Fair CLR 77 74.5 92% 78 30.15 1021.0 0.01
25 04:55 SW 5 6.00 Light Rain Fog/Mist FEW002 BKN015 BKN020 OVC028 77.5 74.7 91% 79 30.16 1021.3 0.04 0.04
25 03:55 Calm 10.00 Overcast OVC015 78.3 73.6 86% 81 30.15 1021.0
25 02:55 W 6 10.00 Fair CLR 78.8 73.8 85% 82 30.17 1021.7
25 01:55 S 5 10.00 Mostly Cloudy BKN095 79.2 73.4 84.4 79.2 83% 83 30.17 1021.7
25 00:55 SW 3 10.00 Partly Cloudy SCT110 79.9 73.4 81% 84 30.18 1022.0
24 23:55 SW 7 10.00 Partly Cloudy FEW130 SCT160 80.2 73.4 80% 85 30.17 1021.7
24 22:55 SW 6 10.00 A Few Clouds FEW160 81.3 73.4 77% 87 30.17 1021.7
24 21:55 S 7 10.00 Partly Cloudy SCT110 82.6 73 73% 88 30.16 1021.4
24 20:55 S 7 10.00 Mostly Cloudy FEW140 BKN200 83.8 73.8 72% 91 30.15 1021.0
24 19:55 S 7 10.00 Fair CLR 84.4 74.3 92.8 84.4 72% 92 30.13 1020.4
24 18:55 S 7 10.00 A Few Clouds FEW028 85.8 73.6 67% 93 30.11 1019.7
24 17:55 SW 9 10.00 Partly Cloudy SCT046 91.9 72.9 54% 101 30.1 1019.3
24 16:55 S 6 10.00 A Few Clouds FEW038 91.4 73.9 57% 101 30.11 1019.6
24 15:55 SW 10 10.00 Partly Cloudy SCT039 91.8 74.8 58% 103 30.11 1019.6
24 14:55 SW 8 10.00 A Few Clouds FEW200 91 74.7 59% 101 30.13 1020.3
24 13:55 SW 12 10.00 A Few Clouds FEW140 FEW170 FEW200 88.7 74.5 88.7 74.3 63% 98 30.15 1021.0
24 12:55 W 10 10.00 Fair CLR 87.1 73.8 65% 95 30.17 1021.7
24 11:55 S 6 5.00 A Few Clouds with Haze FEW200 85.3 75.2 72% 94 30.17 1021.7
24 10:55 SW 5 10.00 A Few Clouds FEW160 FEW200 80.2 73.4 80% 85 30.18 1022.0
24 09:55 SW 5 10.00 Fair CLR 77.4 72.9 86% 79 30.16 1021.4
24 08:55 SW 5 10.00 Partly Cloudy SCT006 75.7 72.5 90% 76 30.16 1021.4
24 07:55 S 5 10.00 Overcast OVC005 74.5 72.5 76.5 73.6 94% 30.15 1021.0 0.39
24 06:55 S 5 10.00 Overcast OVC005 73.9 72.1 94% 30.15 1021.0
24 05:55 SE 3 10.00 Light Rain CLR 73.9 72.3 95% 30.13 1020.3 0.05
24 04:55 SW 6 7.00 Light Rain OVC055 74.1 72.1 94% 30.13 1020.3 0.15 0.34
24 03:55 SW 13 7.00 Light Rain FEW009 BKN022 74.8 72.3 92% 30.15 1021.0 0.09
24 02:55 S 8 4.00 Rain Fog/Mist OVC045 75.6 73.6 94% 75 30.12 1020.0 0.1
24 01:55 S 5 7.00 Light Rain SCT018 76.3 74.1 85.3 76.3 93% 76 30.13 1020.3 0.02 0.24
24 00:55 SW 3 7.00 Thunderstorm in Vicinity Light Rain BKN024 BKN070 76.5 73.9 92% 77 30.15 1021.0 0.07
23 23:55 S 9 10.00 Thunderstorm in Vicinity FEW011 FEW095 SCT150 77.7 74.1 89% 80 30.12 1020.0 0.04
23 22:55 SE 10 7.00 Heavy Rain FEW014 FEW160 79.9 74.5 84% 84 30.09 1019.0 0.11 0.11
23 21:55 S 7 10.00 Mostly Cloudy SCT033 BKN140 82.8 73.2 73% 89 30.1 1019.3
23 20:55 Calm 10.00 Fair CLR 84.2 75 74% 92 30.07 1018.3
23 19:55 Calm 10.00 Fair CLR 84.2 75 93.6 84.2 74% 92 30.05 1017.6
23 18:55 SW 7 10.00 Thunderstorm in Vicinity CLR 90.3 73.9 59% 100 30.04 1017.3
23 17:55 S 7 10.00 A Few Clouds FEW048 92.3 73.2 54% 101 30.02 1016.6
23 16:55 SW 8 10.00 Fair CLR 92.7 71.8 51% 100 30.02 1016.6
23 15:55 S 9 G 20 10.00 A Few Clouds FEW046 92.7 71.8 51% 100 30.03 1016.9
23 14:55 SW 8 10.00 Fair CLR 93 72.7 52% 102 30.04 1017.3
23 13:55 S 9 10.00 A Few Clouds FEW038 FEW190 91.2 74.8 91.8 78.1 59% 102 30.06 1017.9
23 11:55 SW 10 10.00 A Few Clouds FEW031 88.3 73.6 62% 97 30.09 1019.0
23 10:55 SW 6 10.00 Fair CLR 87.1 75.2 68% 97 30.08 1018.6
23 09:55 SW 6 10.00 Fair CLR 83.5 75 76% 91 30.09 1019.0
23 08:55 SW 3 10.00 Fair CLR 79.5 74.8 86% 84 30.09 1019.0
23 06:55 SW 3 7.00 Partly Cloudy SCT130 75.9 73.4 92% 76 30.07 1018.3
23 05:55 Calm 10.00 A Few Clouds FEW060 FEW150 75.6 73.4 93% 75 30.06 1018.0
23 04:55 Calm 10.00 Mostly Cloudy BKN060 75.6 72.7 91% 75 30.06 1018.0
23 03:55 Calm 8.00 A Few Clouds FEW021 75.6 72.7 91% 75 30.04 1017.3
23 02:55 Calm 8.00 A Few Clouds FEW150 FEW170 75.6 72.7 91% 75 30.03 1016.9
23 01:55 SW 3 10.00 Partly Cloudy SCT130 SCT150 75.9 72.7 77.2 75.7 90% 76 30.04 1017.3
23 00:55 SW 3 10.00 Light Rain SCT160 76.6 73.8 91% 77 30.04 1017.3
22 23:55 S 3 10.00 Mostly Cloudy FEW021 BKN150 76.5 74.3 93% 77 30.04 1017.3
22 22:55 S 5 10.00 Fair CLR 76.3 74.1 93% 76 30.06 1018.0
22 21:55 SE 3 10.00 Fair CLR 76.5 74.5 94% 77 30.03 1017.0
22 20:55 SE 3 10.00 Fair CLR 76.3 74.1 93% 76 30.01 1016.3
22 19:55 S 3 10.00 Fair CLR 77.2 72.7 90.1 75.4 86% 79 29.99 1015.6 0.01 0.6
22 18:55 S 8 10.00 Fair CLR 77 72.1 85% 78 29.98 1015.3 0.02
22 17:55 S 10 1.00 Thunderstorm Rain FEW002 BKN016 77.2 72.9 87% 79 29.96 1014.6 0.44
22 16:55 W 9 10.00 Thunderstorm SCT050 81.9 75.7 82% 89 29.99 1015.6 0.13
22 15:55 S 14 G 21 4.00 Light Rain Fog/Mist FEW002 SCT014 SCT023 BKN035 BKN044 78.8 74.8 88% 82 29.99 1015.6 0.13
22 14:55 S 10 10.00 Partly Cloudy FEW029 SCT039 88.2 73.9 63% 97 29.98 1015.3
22 13:55 S 8 10.00 Light Rain SCT030 SCT041 SCT210 85.8 75.2 88.2 74.8 71% 95 30.01 1016.3
22 12:55 S 5 10.00 Mostly Cloudy FEW027 SCT032 SCT100 BKN210 86.5 73.2 65% 94 30.03 1016.9
Date Time (edt) Wind (mph) Vis. (mi.) Weather Sky Cond. Air Dwpt Max. Min. Relative Humidity Wind Chill (°F) Heat Index (°F) altimeter (in) sea level (mb) 1 hr 3 hr 6 hr
6 hour
Temperature (ºF) Pressure Precipitation (in)